Terminal Aerodrome Forecast
Issued by NWS Pueblo, CO

Home | Current Version | Previous Version | Text Only | Print | Product List | Glossary On
Versions: 1 2 3 4 5 6 7 8 9 10 11 12 13 14 15 16 17 18 19 20 21 22 23 24 25 26 27 28 29 30 31 32 33 34 35 36 37 38 39 40 41 42 43 44 45 46 47 48 49 50
000
FTUS45 KPUB 281427 AAA
TAFCOS
TAF AMD
KCOS 281427Z 2814/0112 VRB06KT P6SM FEW005 SCT080 SCT180
      TEMPO 2814/2815 5SM BR BKN005
     FM281700 13008KT 6SM -SHSN BR BKN020 OVC030
     FM282100 15011KT 1SM -SN BR BKN010 OVC025
     FM010900 VRB06KT P6SM FEW005 SCT025 SCT100=

USA.gov is the U.S. government's official web portal to all federal, state and local government web resources and services.